This demonstration page uses our WeatherBlox Daily Observations layout. Learn more.

Left ArrowRight Arrow

39.08367, -84.50855

Hourly Observations for April 27, 2020

Temp ( °F °C ) Dew Point ( °F °C ) Humidity (%) Winds ( mph kmh ) Pressure ( in mb ) Visibility ( mi km ) Precip ( " mm )
12:09 am 00:09 Mostly Cloudy with Fog 42 5.6 41 5 96 96 Calm 30.17 1022 1 1 0.00 0.00
12:16 am 00:16 Mostly Cloudy with Fog 41 5 40 4.4 96 96 Calm 30.17 1022 0 0 0.00 0.00
12:53 am 00:53 Mostly Cloudy with Fog 39 3.9 39 3.9 100 100 Calm 30.16 1021 0 0 0.00 0.00
1:53 am 01:53 Mostly Cloudy with Fog 40 4.4 39 3.9 97 97 Calm 30.17 1022 0 0 0.00 0.00
2:53 am 02:53 Mostly Cloudy with Fog 40 4.4 39 3.9 97 97 Calm 30.17 1022 0 0 0.00 0.00
3:53 am 03:53 Mostly Cloudy with Fog 39 3.9 39 3.9 100 100 Calm 30.17 1022 0 0 0.00 0.00
4:53 am 04:53 Mostly Cloudy with Fog 38 3.3 38 3.3 100 100 Calm 30.19 1023 0 0 0.00 0.00
5:53 am 05:53 Mostly Cloudy with Fog 37 2.8 37 2.8 100 100 Calm 30.20 1023 0 0 0.00 0.00
6:53 am 06:53 Mostly Cloudy with Fog 37 2.8 37 2.8 100 100 Calm 30.20 1023 N/A 0.00 0.00
7:53 am 07:53 Mostly Cloudy with Fog 38 3.3 38 3.3 100 100 Calm 30.23 1024 N/A 0.00 0.00
8:53 am 08:53 Mostly Cloudy with Fog 40 4.4 40 4.4 100 100 Calm 30.25 1025 N/A 0.00 0.00
9:53 am 09:53 Partly Cloudy 46 7.8 46 7.8 100 100 SSW 3 6 30.26 1025 7 11 0.00 0.00
10:53 am 10:53 Sunny 54 12.2 38 3.3 55 55 SSW 6 9 30.26 1025 10 16 0.00 0.00
11:53 am 11:53 Sunny 57 13.9 40 4.4 53 53 SE 6 9 30.25 1025 10 16 0.00 0.00
12:53 pm 12:53 Sunny 61 16.1 38 3.3 43 43 WNW 5 7 30.24 1024 10 16 0.00 0.00
1:53 pm 13:53 Sunny 62 16.7 38 3.3 41 41 S 6 9 30.21 1023 10 16 0.00 0.00
2:53 pm 14:53 Mostly Sunny 64 17.8 33 0.6 32 32 Calm 30.19 1022 10 16 0.00 0.00
3:53 pm 15:53 Sunny 65 18.3 34 1.1 32 32 SSW 7 11 30.16 1021 10 16 0.00 0.00
4:53 pm 16:53 Sunny 65 18.3 34 1.1 32 32 SW 9 15 30.13 1020 10 16 0.00 0.00
5:53 pm 17:53 Sunny 65 18.3 38 3.3 37 37 SSW 12 19 30.11 1020 10 16 0.00 0.00
6:53 pm 18:53 Sunny 64 17.8 38 3.3 38 38 SSW 14 22 30.10 1019 10 16 0.00 0.00
7:53 pm 19:53 Sunny 60 15.6 36 2.2 41 41 SSW 10 17 30.09 1019 10 16 0.00 0.00
8:53 pm 20:53 Partly Cloudy 53 11.7 41 5 64 64 SSW 6 9 30.08 1019 10 16 0.00 0.00
9:53 pm 21:53 Mostly Cloudy 57 13.9 40 4.4 53 53 S 8 13 30.08 1019 10 16 0.00 0.00
10:53 pm 22:53 Cloudy 56 13.3 41 5 57 57 S 7 11 30.06 1018 10 16 0.00 0.00
11:53 pm 23:53 Cloudy with Light Rain 54 12.2 45 7.2 72 72 SSW 3 6 30.06 1018 10 16 0.01 0.25

Powered by AerisWeather